Terug naar catalogus

COSMOS 2251 DEB

ActiefVLEO
NORAD 33818·DEBRIS·🇷🇺 Russia

Gelanceerd Jun 16, 1993 vanaf Plesetsk Cosmodrome

Loading…

Volgende Passages (komende 24 uur)

TLE

VersSource: Space-Track

Epoch: Sep 14, 2026, 12:01 UTC

1 33818U 93036BK  26257.50131315  .00107460  00000-0  19011-2 0  9997
2 33818  74.0673 301.5258 0009737 266.0163  93.9937 15.49798087940771

Volg COSMOS 2251 DEB in realtime met AllMySat

Download on the App Store